Hourly Data Report for October 12, 2015

All times are specified in Local Standard Time (LST). Add 1 hour to adjust for Daylight Saving Time where and when it is observed.

HALL BEACH A
NUNAVUT

68°46'33.000" N
81°14'33.000" W
9.10 m
2402354
71293
YUX

Download Data

Hourly Data (October 2015)
Hourly Data Report for October 12, 2015
Temp Definition
°C
Dew Point Temp Definition
°C
Rel Hum Definition
%
Wind Dir Definition
10's deg

Wind Spd Definition
km/h
Visibility Definition
km
Stn Press Definition
kPa
Hmdx Definition


Wind Chill Definition


Weather Definition


TIME
00:00 Legend Double Dagger -1.1 -1.2 99 31 11 16.1 100.21   -5 LegendNANA
01:00 Legend Double Dagger -1.1 -1.2 99 32 13 16.1 100.19   -5 Snow
02:00 Legend Double Dagger -1.2 -1.3 99 32 18 16.1 100.17   -6 Snow
03:00 Legend Double Dagger -1.9 -2.2 98 31 18 16.1 100.14   -7 Snow
04:00 Legend Double Dagger -2.2 -2.5 98 31 22 11.3 100.12   -8 Snow
05:00 Legend Double Dagger -2.2 -2.4 99 31 22 16.1 100.10   -8 Snow
06:00 Legend Double Dagger -2.4 -2.7 98 30 21 4.8 100.10   -8 Snow
07:00 Legend Double Dagger -2.7 -3.1 97 31 21 4.8 100.07   -9 Snow
08:00 Legend Double Dagger -3.1 -3.5 97 31 21 16.1 100.05   -9 LegendNANA
09:00 Legend Double Dagger -2.9 -3.5 96 32 18 16.1 100.01   -9 LegendNANA
10:00 Legend Double Dagger -3.6 -4.3 95 31 17 16.1 99.99   -9 LegendNANA
11:00 Legend Double Dagger -3.4 -4.2 94 30 17 16.1 99.96   -9 LegendNANA
12:00 Legend Double Dagger -3.1 -4.1 93 30 17 16.1 99.95   -9 LegendNANA
13:00 Legend Double Dagger -2.9 -4.0 92 31 18 16.1 99.91   -9 LegendNANA
14:00 Legend Double Dagger -2.5 -3.6 92 30 15 16.1 99.88   -7 LegendNANA
15:00 Legend Double Dagger -2.7 -3.7 93 30 15 16.1 99.86   -8 LegendNANA
16:00 Legend Double Dagger -2.7 -3.5 94 29 15 16.1 99.83   -8 Snow
17:00 Legend Double Dagger -3.1 -3.7 96 32 15 16.1 99.78   -8 Snow
18:00 Legend Double Dagger -2.9 -3.5 96 30 11 11.3 99.76   -7 Snow
19:00 Legend Double Dagger -3.0 -3.6 96 31 9 16.1 99.75   -7 Snow
20:00 Legend Double Dagger -4.0 -4.7 95 30 15 16.1 99.71   -9 Snow
21:00 Legend Double Dagger -4.3 -4.8 96 30 17 16.1 99.68   -10 LegendNANA
22:00 Legend Double Dagger -4.2 -4.8 96 30 13 6.4 99.64   -9 Snow
23:00 Legend Double Dagger -4.7 -5.2 96 30 17 11.3 99.59   -11 Snow

Notes on Data Quality.

Legend

  • E = Estimated
  • M = Missing
  • NA = Not Available
  • ‡ = Partner data that is not subject to review by the National Climate Archives
Date modified: